Weather in Svendborg

Denmark     55°02′39″N   10°36′25″E
В апреле 2022 года жителям России запретили посещать сайт meteo.paraplan.net по решению Генеральной прокуратуры. Аудитория сайта уменьшилась в 10 раз. Владельцы сайта не видят смысла в поддержке погодного сервера в таких условиях. Сайт будет закрыт в октябре.
temp.,
°C
wind,
m/s
gust,
m/s
humid.,
%
clouds,
%
prec.,
mm/h
press.,
hPa
HPBL,
m
25 september, sun
sun2523:00+13ne1181100 0.1 101373
02:00+13wnw2382100 0.1 1013180
05:00+13nnw2385100 0.5 1013130
08:00+12n2288100 0.9 1012131
11:00+12nnw2390100 1.5 1012223
14:00+12wnw3383100 3.3 1011244
17:00+14sw227186 0.1 1009218
20:00+12wnw687790 0.2 1009451
26 september, mon
mon2623:00+11w5774100 0.0 1007508
02:00+12sw7977100 0.0 1005620
05:00+12sw101284100 0.6 1002656
08:00+12sw91287100 2.4 999736
11:00+11ssw121485100 1.4 998715
14:00+11ssw131586100 3.2 997864
17:00+11ssw121489100 1.5 996948
20:00+11ssw111289100 1.9 995880
27 september, tue
tue2723:00+11ssw8991100 0.9 994673
02:00+11sw6791100 4.6 993510
05:00+11sw4586100 1.6 993319
08:00+10nw6883100 2.9 993444
11:00+11nw4576100 0.1 994491
14:00+12w3463100 0.3 9951023
17:00+12sw3359100 0.0 995773
20:00+11s3470100 0.1 996408
28 september, wed
wed2823:00+11s5677100 1.1 996382
02:00+10s4581100 1.9 995304
05:00+10s3486100 1.8 995208
08:00+10se2384100 2.9 995275
11:00+11sse3475100 0.6 995782
14:00+12sse3371100 0.9 995756
17:00+12se2372100 0.3 995678
20:00+10e1179100 0.5 996116
29 september, thu
thu2923:00+10nne1181100 0.9 99699
02:00+9nw1282100 1.0 996119
05:00+10wnw3381100 0.6 996157
08:00+10w4584100 1.2 997219
11:00+10w6882100 1.3 998921
14:00+10wsw8990100 3.6 998778
17:00+11nw6876100 1.0 999936
20:00+10wnw5980100 1.1 1001562